Radiation Dose at Monitoring Post of Fukushima Daini Nuclear Power Station
Date,Time,MP-1(microSv/h),MP-2(microSv/h),MP-3(microSv/h),MP-4(microSv/h),MP-5(microSv/h),MP-6(microSv/h),MP-7(microSv/h),Wind Direction,Wind Velocity(m/s),Rain
2018/03/01,00:00,0.338,0.212,0.346,0.328,0.308,0.173,0.103,south-southwest,4.1,No
2018/03/01,00:10,0.339,0.211,0.346,0.328,0.307,0.172,0.104,south-southwest,4.6,No
2018/03/01,00:20,0.339,0.210,0.348,0.329,0.308,0.173,0.104,south,3.1,No
2018/03/01,00:30,0.339,0.212,0.347,0.329,0.307,0.171,0.103,south,3.2,No
2018/03/01,00:40,0.338,0.211,0.345,0.328,0.307,0.173,0.102,south-southeast,2.5,No
2018/03/01,00:50,0.338,0.211,0.348,0.328,0.310,0.173,0.104,east-southeast,2.4,Yes
2018/03/01,01:00,0.340,0.211,0.347,0.328,0.308,0.172,0.103,southeast,3.6,No
2018/03/01,01:10,0.339,0.212,0.349,0.330,0.308,0.172,0.103,southeast,4.1,No
2018/03/01,01:20,0.339,0.211,0.346,0.327,0.307,0.173,0.104,southeast,4.3,No
2018/03/01,01:30,0.339,0.211,0.348,0.328,0.307,0.173,0.102,east-southeast,6.0,No
2018/03/01,01:40,0.339,0.211,0.348,0.328,0.309,0.172,0.103,east-southeast,7.3,No
2018/03/01,01:50,0.338,0.211,0.346,0.327,0.307,0.172,0.104,east-southeast,7.1,No
2018/03/01,02:00,0.338,0.210,0.347,0.327,0.307,0.173,0.102,southeast,9.0,No
2018/03/01,02:10,0.338,0.211,0.348,0.330,0.307,0.171,0.103,east-southeast,8.4,Yes
2018/03/01,02:20,0.338,0.212,0.346,0.329,0.308,0.171,0.103,east-southeast,10.6,Yes
2018/03/01,02:30,0.340,0.212,0.346,0.329,0.309,0.172,0.104,east-southeast,10.6,Yes
2018/03/01,02:40,0.339,0.211,0.348,0.330,0.310,0.174,0.104,southeast,10.6,Yes
2018/03/01,02:50,0.339,0.213,0.349,0.331,0.308,0.173,0.105,southeast,11.2,Yes
2018/03/01,03:00,0.339,0.213,0.347,0.329,0.311,0.174,0.106,east-southeast,12.0,Yes
2018/03/01,03:10,0.342,0.213,0.348,0.330,0.310,0.173,0.106,southeast,12.5,Yes
2018/03/01,03:20,0.340,0.214,0.349,0.332,0.308,0.175,0.106,southeast,13.3,Yes
2018/03/01,03:30,0.341,0.214,0.347,0.332,0.309,0.175,0.106,southeast,12.6,Yes
2018/03/01,03:40,0.340,0.215,0.348,0.330,0.311,0.175,0.107,southeast,12.9,Yes
2018/03/01,03:50,0.342,0.215,0.348,0.331,0.309,0.175,0.107,southeast,13.7,Yes
2018/03/01,04:00,0.341,0.215,0.348,0.331,0.311,0.178,0.110,southeast,12.3,Yes
2018/03/01,04:10,0.339,0.215,0.348,0.331,0.311,0.178,0.111,southeast,13.1,Yes
2018/03/01,04:20,0.342,0.217,0.347,0.331,0.312,0.178,0.112,-,CALM,Yes
2018/03/01,04:30,0.341,0.217,0.349,0.331,0.310,0.179,0.112,-,CALM,Yes
2018/03/01,04:40,0.340,0.217,0.347,0.331,0.312,0.179,0.112,-,CALM,Yes
2018/03/01,04:50,0.340,0.216,0.346,0.330,0.310,0.179,0.111,-,CALM,Yes
2018/03/01,05:00,0.339,0.216,0.345,0.330,0.309,0.179,0.111,-,CALM,Yes
2018/03/01,05:10,0.338,0.215,0.344,0.329,0.308,0.179,0.110,-,CALM,Yes
2018/03/01,05:20,0.337,0.214,0.343,0.328,0.308,0.177,0.111,-,CALM,Yes
2018/03/01,05:30,0.337,0.213,0.344,0.327,0.309,0.177,0.111,-,CALM,Yes
2018/03/01,05:40,0.336,0.213,0.341,0.327,0.307,0.177,0.111,-,CALM,Yes
2018/03/01,05:50,0.338,0.214,0.340,0.324,0.309,0.178,0.113,-,CALM,Yes
2018/03/01,06:00,0.337,0.216,0.341,0.325,0.309,0.177,0.114,-,CALM,Yes
2018/03/01,06:10,0.338,0.215,0.339,0.324,0.308,0.177,0.113,-,CALM,Yes
2018/03/01,06:20,0.335,0.215,0.338,0.325,0.308,0.176,0.112,-,CALM,Yes
2018/03/01,06:30,0.334,0.213,0.337,0.323,0.307,0.175,0.113,-,CALM,Yes
2018/03/01,06:40,0.335,0.214,0.337,0.321,0.305,0.174,0.112,-,CALM,Yes
2018/03/01,06:50,0.332,0.212,0.334,0.320,0.306,0.173,0.112,-,CALM,Yes
2018/03/01,07:00,0.330,0.212,0.333,0.319,0.306,0.173,0.111,-,CALM,Yes
2018/03/01,07:10,0.331,0.211,0.332,0.319,0.305,0.172,0.112,-,CALM,Yes
2018/03/01,07:20,0.331,0.211,0.332,0.317,0.305,0.172,0.110,-,CALM,Yes
2018/03/01,07:30,0.329,0.210,0.331,0.316,0.305,0.172,0.110,-,CALM,Yes
2018/03/01,07:40,0.326,0.210,0.331,0.317,0.305,0.171,0.110,south-southeast,14.4,Yes
2018/03/01,07:50,0.328,0.209,0.329,0.314,0.303,0.171,0.108,-,CALM,Yes
2018/03/01,08:00,0.326,0.209,0.328,0.314,0.305,0.170,0.108,-,CALM,Yes
2018/03/01,08:10,0.324,0.207,0.326,0.309,0.303,0.168,0.107,-,CALM,Yes
2018/03/01,08:20,0.322,0.205,0.323,0.306,0.299,0.167,0.107,south,11.2,Yes
2018/03/01,08:30,0.320,0.206,0.321,0.304,0.300,0.166,0.106,south,10.6,Yes
2018/03/01,08:40,0.322,0.205,0.321,0.305,0.301,0.166,0.106,south,8.1,Yes
2018/03/01,08:50,0.320,0.206,0.321,0.304,0.300,0.167,0.106,-,CALM,Yes
2018/03/01,09:00,0.319,0.206,0.321,0.304,0.301,0.167,0.108,south-southeast,10.6,Yes
2018/03/01,09:10,0.320,0.206,0.322,0.306,0.301,0.168,0.107,southeast,17.6,Yes
2018/03/01,09:20,0.321,0.208,0.325,0.309,0.302,0.168,0.108,south-southeast,14.2,Yes
2018/03/01,09:30,0.321,0.208,0.326,0.308,0.305,0.168,0.107,south-southeast,10.9,Yes
2018/03/01,09:40,0.322,0.207,0.326,0.310,0.302,0.166,0.106,south-southwest,10.6,No
2018/03/01,09:50,0.322,0.205,0.327,0.311,0.302,0.167,0.105,south,11.8,Yes
2018/03/01,10:00,0.320,0.205,0.325,0.308,0.303,0.165,0.103,south-southwest,9.3,Yes
2018/03/01,10:10,0.320,0.201,0.324,0.312,0.300,0.165,0.102,south-southwest,8.1,Yes
2018/03/01,10:20,0.318,0.202,0.326,0.307,0.302,0.163,0.101,south-southwest,6.5,No
2018/03/01,10:30,0.318,0.201,0.323,0.308,0.299,0.163,0.101,south,5.3,No
2018/03/01,10:40,0.318,0.200,0.324,0.307,0.300,0.163,0.100,south-southwest,5.1,No
2018/03/01,10:50,0.316,0.200,0.322,0.307,0.297,0.162,0.100,south-southwest,7.5,No
2018/03/01,11:00,0.318,0.200,0.322,0.310,0.298,0.162,0.099,south-southwest,8.2,No
2018/03/01,11:10,0.315,0.201,0.323,0.306,0.297,0.162,0.099,south-southwest,8.4,No
2018/03/01,11:20,0.317,0.199,0.321,0.308,0.299,0.163,0.098,south-southwest,8.3,No
2018/03/01,11:30,0.314,0.199,0.324,0.306,0.297,0.161,0.098,south-southwest,6.1,No
2018/03/01,11:40,0.317,0.198,0.321,0.308,0.298,0.162,0.098,south-southwest,5.4,No
2018/03/01,11:50,0.316,0.199,0.324,0.306,0.297,0.161,0.098,southwest,4.8,No
2018/03/01,12:00,0.319,0.198,0.321,0.307,0.298,0.161,0.097,west-southwest,5.5,No
2018/03/01,12:10,0.315,0.200,0.324,0.307,0.296,0.160,0.098,west,4.6,No
2018/03/01,12:20,0.318,0.199,0.322,0.309,0.299,0.161,0.098,west-northwest,3.5,No
2018/03/01,12:30,0.316,0.200,0.324,0.304,0.296,0.162,0.097,north,1.5,No
2018/03/01,12:40,0.317,0.198,0.323,0.306,0.295,0.161,0.097,west-northwest,3.6,No
2018/03/01,12:50,0.320,0.200,0.321,0.308,0.298,0.162,0.098,west-northwest,7.9,No
2018/03/01,13:00,0.315,0.200,0.323,0.304,0.296,0.162,0.097,west,5.0,No
2018/03/01,13:10,0.319,0.200,0.323,0.307,0.298,0.162,0.097,west-northwest,5.2,No
2018/03/01,13:20,0.317,0.201,0.322,0.310,0.299,0.163,0.098,northwest,6.7,No
2018/03/01,13:30,0.317,0.198,0.327,0.309,0.297,0.162,0.098,northwest,9.2,No
2018/03/01,13:40,0.320,0.199,0.323,0.306,0.298,0.162,0.098,west-northwest,6.8,No
2018/03/01,13:50,0.316,0.199,0.324,0.310,0.299,0.163,0.099,west-northwest,3.8,No
2018/03/01,14:00,0.321,0.201,0.326,0.309,0.297,0.163,0.098,west,6.0,No
2018/03/01,14:10,0.316,0.200,0.323,0.308,0.300,0.163,0.099,west,6.7,No
2018/03/01,14:20,0.318,0.199,0.327,0.310,0.299,0.164,0.098,west-southwest,8.7,No
2018/03/01,14:30,0.321,0.200,0.325,0.310,0.296,0.162,0.097,west,12.2,No
2018/03/01,14:40,0.320,0.199,0.324,0.309,0.299,0.163,0.098,west,13.9,No
2018/03/01,14:50,0.321,0.200,0.327,0.311,0.297,0.163,0.099,west,17.3,No
2018/03/01,15:00,0.320,0.199,0.328,0.310,0.298,0.163,0.098,west,14.6,No
2018/03/01,15:10,0.322,0.200,0.325,0.310,0.300,0.164,0.098,west,12.8,No
2018/03/01,15:20,0.320,0.200,0.329,0.313,0.301,0.163,0.098,west-northwest,11.5,No
2018/03/01,15:30,0.321,0.200,0.328,0.311,0.300,0.165,0.099,west,12.5,No
2018/03/01,15:40,0.322,0.200,0.327,0.314,0.301,0.164,0.099,west,14.5,No
2018/03/01,15:50,0.320,0.201,0.328,0.309,0.299,0.165,0.099,west,12.6,No
2018/03/01,16:00,0.323,0.199,0.326,0.310,0.301,0.164,0.098,-,CALM,No
2018/03/01,16:10,0.322,0.200,0.327,0.312,0.299,0.165,0.098,west,18.3,No
2018/03/01,16:20,0.321,0.200,0.328,0.311,0.300,0.165,0.099,west,18.1,No
2018/03/01,16:30,0.322,0.201,0.327,0.312,0.301,0.165,0.099,west,18.1,No
2018/03/01,16:40,0.323,0.201,0.329,0.311,0.301,0.165,0.098,west,19.3,No
2018/03/01,16:50,0.322,0.202,0.330,0.311,0.301,0.164,0.098,west,15.0,No
2018/03/01,17:00,0.322,0.202,0.328,0.311,0.302,0.166,0.099,west,14.4,No
2018/03/01,17:10,0.325,0.202,0.329,0.313,0.303,0.165,0.098,west,9.8,No
2018/03/01,17:20,0.322,0.202,0.331,0.311,0.302,0.165,0.098,west,7.7,No
2018/03/01,17:30,0.324,0.202,0.328,0.312,0.304,0.164,0.099,west,9.8,No
2018/03/01,17:40,0.325,0.202,0.328,0.311,0.304,0.165,0.099,west,9.6,No
2018/03/01,17:50,0.323,0.203,0.330,0.311,0.303,0.165,0.099,west,8.1,No
2018/03/01,18:00,0.325,0.202,0.329,0.312,0.304,0.165,0.099,west-northwest,8.1,No
2018/03/01,18:10,0.323,0.201,0.327,0.313,0.302,0.165,0.099,west,7.8,No
2018/03/01,18:20,0.323,0.202,0.328,0.312,0.300,0.165,0.100,west,7.1,No
2018/03/01,18:30,0.323,0.202,0.329,0.312,0.303,0.164,0.100,west,9.3,No
2018/03/01,18:40,0.323,0.202,0.327,0.313,0.301,0.166,0.099,west,9.3,No
2018/03/01,18:50,0.323,0.202,0.329,0.313,0.301,0.164,0.099,west,10.3,No
2018/03/01,19:00,0.324,0.201,0.330,0.312,0.302,0.166,0.099,west-northwest,7.9,No
2018/03/01,19:10,0.324,0.202,0.327,0.313,0.302,0.166,0.099,northwest,5.6,No
2018/03/01,19:20,0.323,0.202,0.329,0.313,0.301,0.165,0.099,west,6.6,No
2018/03/01,19:30,0.323,0.203,0.330,0.313,0.302,0.165,0.099,west,5.4,No
2018/03/01,19:40,0.324,0.201,0.329,0.312,0.301,0.165,0.099,west,5.3,No
2018/03/01,19:50,0.323,0.203,0.329,0.314,0.302,0.166,0.099,west,3.8,No
2018/03/01,20:00,0.325,0.202,0.329,0.311,0.300,0.167,0.099,west,5.4,No
2018/03/01,20:10,0.323,0.202,0.328,0.313,0.301,0.165,0.099,west-northwest,6.2,No
2018/03/01,20:20,0.323,0.202,0.328,0.313,0.301,0.165,0.099,west,5.3,No
2018/03/01,20:30,0.323,0.202,0.330,0.314,0.302,0.165,0.099,west,3.1,No
2018/03/01,20:40,0.325,0.201,0.329,0.313,0.301,0.166,0.100,west,7.3,No
2018/03/01,20:50,0.323,0.201,0.328,0.312,0.301,0.166,0.100,west,10.4,No
2018/03/01,21:00,0.325,0.202,0.328,0.313,0.301,0.165,0.099,west,9.5,No
2018/03/01,21:10,0.325,0.202,0.330,0.314,0.301,0.167,0.099,west,7.7,No
2018/03/01,21:20,0.325,0.202,0.330,0.313,0.303,0.165,0.099,west,8.2,No
2018/03/01,21:30,0.324,0.201,0.329,0.314,0.301,0.165,0.100,west,9.8,No
2018/03/01,21:40,0.325,0.201,0.330,0.313,0.300,0.167,0.098,west-northwest,12.6,No
2018/03/01,21:50,0.325,0.201,0.330,0.312,0.300,0.166,0.099,west,11.4,No
2018/03/01,22:00,0.324,0.201,0.329,0.313,0.302,0.167,0.099,west,12.2,No
2018/03/01,22:10,0.325,0.201,0.329,0.312,0.301,0.167,0.099,west,11.5,No
2018/03/01,22:20,0.324,0.203,0.330,0.313,0.300,0.166,0.100,west,10.6,No
2018/03/01,22:30,0.325,0.201,0.331,0.315,0.301,0.166,0.099,west,11.8,No
2018/03/01,22:40,0.325,0.203,0.331,0.313,0.302,0.166,0.099,west,9.6,No
2018/03/01,22:50,0.324,0.201,0.331,0.313,0.305,0.166,0.099,west,7.9,No
2018/03/01,23:00,0.325,0.202,0.330,0.313,0.302,0.166,0.099,west,11.4,No
2018/03/01,23:10,0.325,0.202,0.331,0.313,0.302,0.166,0.099,west,9.3,No
2018/03/01,23:20,0.324,0.202,0.331,0.313,0.302,0.166,0.100,west-northwest,11.5,No
2018/03/01,23:30,0.325,0.202,0.331,0.313,0.302,0.165,0.100,west,10.9,No
2018/03/01,23:40,0.325,0.202,0.330,0.313,0.304,0.167,0.100,west,8.5,No
2018/03/01,23:50,0.326,0.203,0.330,0.315,0.302,0.165,0.100,west,10.3,No
